Weather History for LIVE - December, 2013

Change the Weather History Date:

Wednesday, December 18, 2013

  Actual Average Record
Temperature  
Mean Temperature 32 °F -  
Max Temperature 37 °F 33 °F 44 °F (1998)
Min Temperature 26 °F 19 °F 8 °F (2010)
Degree Days  
Heating Degree Days 34    
Moisture  
Dew Point 21 °F    
Average Humidity 70    
Maximum Humidity 100    
Minimum Humidity 40    
Precipitation  
Precipitation 0.00 in - - ()
Sea Level Pressure  
Sea Level Pressure 30.21 in    
Wind  
Wind Speed 1 mph ()    
Max Wind Speed 9 mph    
Max Gust Speed -    
Averages and records for this station are not official NWS values.
T = Trace of Precipitation, MM = Missing Value Source: Averaged Metar Reports

Daily Weather History Graph

Daily Weather History Graph

Search for Another Location

Airport or City:

Trip Planner

Search our weather history database for the weather conditions in past years. The results will help you decide how hot, cold, wet, or windy it might be!

Date:

Astronomy

Dec. 18, 2013 Rise Set
Actual Time 7:58 AM CET 4:30 PM CET
Civil Twilight 7:23 AM CET 5:06 PM CET
Nautical Twilight 6:44 AM CET 5:44 PM CET
Astronomical Twilight 6:07 AM CET 6:21 PM CET
Moon 5:53 PM CET (12/18) 8:22 AM CET (12/18)
Length of Visible Light 9h 43m
Length of Day
8h 32m
Full, 99% of the Moon is Illuminated
Dec 18
Full
Dec 25
Last Quarter
Jan 1
New
Jan 8
First Quarter
Jan 16
Full

Hourly Weather History & Observations

Time (CET) Temp. Windchill Dew Point Humidity Pressure Visibility Wind Dir Wind Speed Gust Speed Precip Events Conditions
12:55 AM 28.4 °F 24.6 °F 24.8 °F 86% 30.33 in - North 3.5 mph - N/A   Clear
1:55 AM 28.4 °F - 24.8 °F 86% 30.33 in - Calm Calm - N/A   Clear
5:55 AM 26.6 °F - 24.8 °F 93% 30.27 in - Calm Calm - N/A   Clear
6:55 AM 26.6 °F - 24.8 °F 93% 30.27 in - Calm Calm - N/A   Clear
7:55 AM 26.6 °F - 26.6 °F 100% 30.27 in - Calm Calm - N/A   Clear
8:55 AM 28.4 °F - 28.4 °F 100% 30.27 in - Calm Calm - N/A   Clear
9:55 AM 28.4 °F - 28.4 °F 100% 30.27 in - Calm Calm - N/A   Clear
10:55 AM 30.2 °F - 30.2 °F 100% 30.27 in - Calm Calm - N/A   Clear
11:55 AM 32.0 °F - 30.2 °F 93% 30.24 in - Calm Calm - N/A   Clear
12:55 PM 33.8 °F - 28.4 °F 81% 30.21 in - Calm Calm - N/A   Clear
1:55 PM 35.6 °F - 28.4 °F 75% 30.21 in - Calm Calm - N/A   Clear
2:55 PM 37.4 °F 34.9 °F 24.8 °F 60% 30.18 in - SSE 3.5 mph - N/A   Clear
3:55 PM 37.4 °F - 21.2 °F 52% 30.15 in - Calm Calm - N/A   Clear
4:55 PM 35.6 °F - 15.8 °F 44% 30.15 in - Variable 2.3 mph - N/A   Clear
5:55 PM 33.8 °F 30.8 °F 12.2 °F 41% 30.15 in - NE 3.5 mph - N/A   Clear
6:55 PM 32.0 °F - 10.4 °F 41% 30.15 in - Variable 1.2 mph - N/A   Clear
7:55 PM 30.2 °F - 8.6 °F 40% 30.15 in - Variable 2.3 mph - N/A   Clear
8:55 PM 28.4 °F 24.6 °F 10.4 °F 47% 30.15 in - South 3.5 mph - N/A   Clear
9:55 PM 28.4 °F 22.2 °F 8.6 °F 43% 30.12 in - SW 5.8 mph - N/A   Clear
10:55 PM 30.2 °F 24.3 °F 8.6 °F 40% 30.12 in - SSW 5.8 mph - N/A   Clear
11:55 PM 30.2 °F 21.9 °F 12.2 °F 47% 30.12 in - SW 9.2 mph - N/A   Clear